Hayward, WI

7:55 AM CDT on September 18, 2019 (GMT -0500)
Sawyer County

Weather History for KHYR - August, 2019

Change the Weather History Date:

Thursday, August 22, 2019

  Actual Average Record
Temperature  
Mean Temperature 58 °F -  
Max Temperature 70 °F 68 °F 87 °F (2008)
Min Temperature 46 °F 53 °F 37 °F (2005)
Degree Days  
Heating Degree Days 6    
Growing Degree Days 8 (Base 50)    
Moisture  
Dew Point 50 °F    
Average Humidity 76    
Maximum Humidity 93    
Minimum Humidity 49    
Precipitation  
Precipitation 0.00 in - - ()
Sea Level Pressure  
Sea Level Pressure 30.12 in    
Wind  
Wind Speed 3 mph (NE)    
Max Wind Speed 13 mph    
Max Gust Speed -    
Visibility 10 miles    
Events      
Averages and records for this station are not official NWS values.
T = Trace of Precipitation, MM = Missing Value Source: NWS Daily Summary

Daily Weather History Graph

Daily Weather History Graph

Search for Another Location

Airport or City:

Astronomy

Aug. 22, 2019 Rise Set
Actual Time 6:13 AM CDT 8:02 PM CDT
Civil Twilight 5:41 AM CDT 8:34 PM CDT
Nautical Twilight 5:02 AM CDT 9:13 PM CDT
Astronomical Twilight 4:19 AM CDT 9:55 PM CDT
Moon 11:30 PM CDT (8/22) 1:10 PM CDT (8/22)
Length of Visible Light 14h 52m
Length of Day
13h 49m
Waning Gibbous, 59% of the Moon is Illuminated
Aug 22
Waning Gibbous
Aug 23
Last Quarter
Aug 30
New
Sep 5
First Quarter
Sep 13
Full

Hourly Weather History & Observations

Time (CDT) Temp. Windchill Dew Point Humidity Pressure Visibility Wind Dir Wind Speed Gust Speed Precip Events Conditions
12:53 AM 55.9 °F - 50.0 °F 80% 30.07 in 10.0 mi Calm Calm - N/A   Overcast
1:53 AM 53.1 °F - 50.0 °F 89% 30.07 in 10.0 mi Calm Calm - N/A   Mostly Cloudy
2:53 AM 52.0 °F - 50.0 °F 93% 30.06 in 10.0 mi Calm Calm - N/A   Overcast
3:53 AM 52.0 °F - 50.0 °F 93% 30.06 in 10.0 mi NNE 3.5 mph - N/A   Overcast
4:53 AM 53.1 °F - 51.1 °F 93% 30.06 in 10.0 mi NNE 4.6 mph - N/A   Overcast
5:53 AM 53.1 °F - 51.1 °F 93% 30.07 in 10.0 mi NE 3.5 mph - N/A   Overcast
6:53 AM 54.0 °F - 51.1 °F 90% 30.08 in 10.0 mi NNE 3.5 mph - N/A   Overcast
7:53 AM 55.9 °F - 52.0 °F 87% 30.09 in 10.0 mi NNE 4.6 mph - N/A   Overcast
8:53 AM 57.0 °F - 52.0 °F 83% 30.11 in 10.0 mi NNE 4.6 mph - N/A   Overcast
9:53 AM 59.0 °F - 53.1 °F 81% 30.13 in 10.0 mi NNE 4.6 mph - N/A   Overcast
10:53 AM 63.0 °F - 51.1 °F 65% 30.13 in 10.0 mi NE 6.9 mph - N/A   Overcast
11:53 AM 64.9 °F - 51.1 °F 61% 30.13 in 10.0 mi NE 8.1 mph - N/A   Overcast
12:53 PM 68.0 °F - 48.0 °F 49% 30.12 in 10.0 mi Variable 5.8 mph - N/A   Mostly Cloudy
1:53 PM 64.9 °F - 51.1 °F 61% 30.13 in 10.0 mi NNE 12.7 mph - N/A   Overcast
2:53 PM 68.0 °F - 48.0 °F 49% 30.12 in 10.0 mi NE 5.8 mph - N/A   Overcast
3:53 PM 69.1 °F - 48.9 °F 49% 30.12 in 10.0 mi ENE 5.8 mph - N/A   Overcast
4:53 PM 64.0 °F - 52.0 °F 65% 30.14 in 10.0 mi NNE 6.9 mph - N/A   Overcast
5:53 PM 66.0 °F - 51.1 °F 59% 30.14 in 10.0 mi NE 9.2 mph - N/A   Overcast
6:53 PM 64.0 °F - 51.1 °F 63% 30.14 in 10.0 mi NE 6.9 mph - N/A   Partly Cloudy
7:53 PM 59.0 °F - 50.0 °F 72% 30.15 in 10.0 mi NNE 4.6 mph - N/A   Clear
8:53 PM 53.1 °F - 48.9 °F 86% 30.18 in 10.0 mi NE 5.8 mph - N/A   Clear
9:53 PM 51.1 °F - 46.9 °F 86% 30.20 in 10.0 mi Calm Calm - N/A   Clear
10:53 PM 48.0 °F - 46.0 °F 93% 30.20 in 10.0 mi Calm Calm - N/A   Clear
11:53 PM 46.0 °F 43.9 °F 44.1 °F 93% 30.21 in 10.0 mi North 4.6 mph - N/A   Clear